{"data":{"norad_id":63654,"intl_designator":"2025-083W","name":"STARLINK-33849","alt_names":[],"object_type":"PAYLOAD","status":"ACTIVE","operator":null,"country":"US","launch_date":"2025-04-25","launch_site_code":"AFETR","launch_vehicle":null,"mission":null,"orbit_class":"UNKNOWN","rcs_meters":null,"size_class":null,"mass_kg":null,"dimensions":null,"purposes":["comms"],"wikipedia_slug":null,"has_3d_model":false,"image_url":null,"decayed_at":null,"tle_current":{"epoch":"2026-05-25T02:51:03.234816Z","epoch_age_seconds":61870,"freshness":"FRESH","line1":"1 63654U 25083W   26145.11878744  .00017814  00000+0  65545-3 0  9998","line2":"2 63654  43.0018 293.7515 0001109 271.0951  88.9773 15.27573487 61750","mean_motion":15.27573487,"eccentricity":0.0001109,"inclination_deg":43.0018,"raan_deg":293.7515,"arg_perigee_deg":271.0951,"mean_anomaly_deg":88.9773,"bstar":0.00065545,"rev_number":6175,"period_min":94.267150631687,"perigee_km":482.30769067312,"apogee_km":483.82950607484,"semimajor_km":6861.205598374,"source":"CELESTRAK","updated_at":"2026-05-25T13:38:20.056322Z"}}}